Powrót do katalogu

OPTIMUS-2

AktywnyNaukaSSO
NORAD 59128·PAYLOAD·🇦🇺 Australia
Ta nazwa satelity nie została jeszcze potwierdzona przez oficjalne źródła.

Wystrzelony Mar 4, 2024 z Vandenberg Space Force Base

Loading…

Następne Przeloty (najbliższe 24 godziny)

TLE

ŚwieżeSource: Space-Track

Epoka: Sep 13, 2026, 21:40 UTC

1 59128U 24043AG  26256.90318308  .00005044  00000-0  16044-3 0  9992
2 59128  97.5776  37.6079 0008234 288.0942  71.9402 15.33053811140705

Śledź OPTIMUS-2 w czasie rzeczywistym z AllMySat

Download on the App Store